sat.trackr.live / text

‹ back to catalog

TJS-1

NORAD 40892 · 2015-046A

PAYLOAD ACTIVE UNKNOWN

§ Identity

Operator
Country
PRC
Launch date
2015-09-12
Launch site
XICLF
Launch vehicle
Mass (kg)
RCS (m²)
65.17

Purposes: comms

External: N2YO · Heavens-Above · Gunter

§ Orbital elements

Epoch: 2026-05-25T02:46:05.924640Z

Period
1,436.12 min
Inclination
0.2655°
Eccentricity
0.0005941
Mean motion
1.00270212 rev/d
Perigee alt
35,762.0 km
Apogee alt
35,812.1 km
Semi-major
42,165.2 km
B*
0.0000e+0
RAAN
84.9482°
Arg perigee
344.2325°
Mean anomaly
10.0226°
Rev number
3,933

§ Raw data

TJS-11 40892U 15046A   26145.11534635 -.00000159  00000+0  00000+0 0  99992 40892   0.2655  84.9482 0005941 344.2325  10.0226  1.00270212 39334

JSON: /api/v1/satellites/40892 · /tle

For live sub-satellite position, see the globe view (requires WebGL).

§ Visibility from observer

Set your observer location to see the next 7 days of passes ≥ 10°. The values pass through the URL so the page stays shareable.

No JS? Fill the form by hand. The geolocation button needs JavaScript.